Alva, OK

8:59 PM CDT on June 27, 2017 (GMT -0500)
Alva Regional

Weather History for KAVK - May, 2013

Change the Weather History Date:

Thursday, May 2, 2013

  Actual Average Record
Temperature  
Mean Temperature 44 °F -  
Max Temperature 53 °F 71 °F 95 °F (1968)
Min Temperature 35 °F 49 °F 32 °F (2014)
Degree Days  
Heating Degree Days 21    
Moisture  
Dew Point 32 °F    
Average Humidity 71    
Maximum Humidity 100    
Minimum Humidity 35    
Precipitation  
Precipitation 0.50 in - - ()
Sea Level Pressure  
Sea Level Pressure 30.44 in    
Wind  
Wind Speed 21 mph (North)    
Max Wind Speed 31 mph    
Max Gust Speed 44 mph    
Visibility 8 miles    
Events Rain , Snow , Thunderstorm    
Averages and records for this station are not official NWS values.
T = Trace of Precipitation, MM = Missing Value Source: NWS Daily Summary

Daily Weather History Graph

Daily Weather History Graph

Search for Another Location

Airport or City:

Trip Planner

Search our weather history database for the weather conditions in past years. The results will help you decide how hot, cold, wet, or windy it might be!

Date:

Astronomy

May. 02, 2013 Rise Set
Actual Time 6:39 AM CDT 8:24 PM CDT
Civil Twilight 6:11 AM CDT 8:52 PM CDT
Nautical Twilight 5:37 AM CDT 9:26 PM CDT
Astronomical Twilight 5:02 AM CDT 10:02 PM CDT
Moon 2:16 AM CDT (5/2) 1:26 PM CDT (5/2)
Length of Visible Light 14h 40m
Length of Day
13h 45m
Waning Gibbous, 47% of the Moon is Illuminated
May 2
Waning Gibbous
May 9
New
May 17
First Quarter
May 24
Full
May 31
Last Quarter

Hourly Weather History & Observations

Time (CDT) Temp. Windchill Dew Point Humidity Pressure Visibility Wind Dir Wind Speed Gust Speed Precip Events Conditions
12:00 AM 37.4 °F 26.6 °F 37.4 °F 100% 30.29 in 7.0 mi North 21.9 mph 32.2 mph 0.39 in Thunderstorm Thunderstorm
12:20 AM 37.4 °F 26.9 °F 37.4 °F 100% 30.31 in 10.0 mi North 20.7 mph 29.9 mph N/A Thunderstorm Overcast
12:45 AM 37.4 °F 27.5 °F 35.6 °F 93% 30.31 in 10.0 mi North 18.4 mph 28.8 mph N/A Thunderstorm Overcast
1:00 AM 37.4 °F 25.6 °F 35.6 °F 93% 30.32 in 10.0 mi North 26.5 mph 39.1 mph N/A   Overcast
1:20 AM 37.4 °F 25.2 °F 35.6 °F 93% 30.33 in 10.0 mi North 28.8 mph 34.5 mph N/A   Overcast
1:40 AM 37.4 °F 26.6 °F 35.6 °F 93% 30.33 in 10.0 mi North 21.9 mph 32.2 mph N/A   Overcast
2:00 AM 37.4 °F 26.4 °F 35.6 °F 93% 30.35 in 10.0 mi North 23.0 mph 34.5 mph N/A Rain Light Rain
2:20 AM 37.4 °F 27.2 °F 35.6 °F 93% 30.35 in 6.0 mi North 19.6 mph 29.9 mph N/A Rain Light Rain
2:40 AM 37.4 °F 26.4 °F 35.6 °F 93% 30.35 in 3.0 mi North 23.0 mph 38.0 mph 0.03 in Snow Light Snow
3:00 AM 37.4 °F 26.4 °F 35.6 °F 93% 30.35 in 3.0 mi North 23.0 mph 31.1 mph 0.04 in Snow Light Snow
3:20 AM 37.4 °F 27.8 °F 35.6 °F 93% 30.36 in 3.0 mi North 17.3 mph 35.7 mph 0.02 in Snow Light Snow
3:40 AM 37.4 °F 26.4 °F 35.6 °F 93% 30.35 in 3.0 mi North 23.0 mph 28.8 mph 0.04 in Snow Light Snow
4:00 AM 37.4 °F 26.9 °F 35.6 °F 93% 30.37 in 2.5 mi North 20.7 mph 33.4 mph 0.10 in   Overcast
4:20 AM 37.4 °F 26.9 °F 35.6 °F 93% 30.38 in 4.0 mi North 20.7 mph 31.1 mph 0.04 in Snow Light Snow
4:40 AM 37.4 °F 27.2 °F 35.6 °F 93% 30.38 in 5.0 mi North 19.6 mph 29.9 mph 0.08 in Snow Light Snow
5:00 AM 37.4 °F 26.9 °F 35.6 °F 93% 30.40 in 10.0 mi North 20.7 mph 29.9 mph 0.08 in Rain Light Rain
5:20 AM 37.4 °F 27.2 °F 35.6 °F 93% 30.41 in 9.0 mi North 19.6 mph 32.2 mph N/A Rain Light Rain
5:40 AM 37.4 °F 26.9 °F 35.6 °F 93% 30.44 in 7.0 mi North 20.7 mph 31.1 mph N/A Rain Light Rain
6:00 AM 35.6 °F 24.2 °F 33.8 °F 93% 30.41 in 4.0 mi North 21.9 mph 35.7 mph 0.05 in Rain Heavy Rain
6:20 AM 35.6 °F 23.4 °F 33.8 °F 93% 30.42 in 4.0 mi North 25.3 mph 32.2 mph 0.02 in   Overcast
6:40 AM 35.6 °F 24.8 °F 33.8 °F 93% 30.43 in 8.0 mi North 19.6 mph 32.2 mph 0.04 in Rain Light Rain
7:00 AM 35.6 °F 24.0 °F 33.8 °F 93% 30.43 in 5.0 mi North 23.0 mph 31.1 mph 0.05 in   Overcast
7:20 AM 35.6 °F 24.0 °F 33.8 °F 93% 30.44 in 4.0 mi North 23.0 mph 35.7 mph 0.02 in Snow Light Snow
7:40 AM 35.6 °F 25.9 °F 33.8 °F 93% 30.48 in 3.0 mi North 16.1 mph 28.8 mph 0.05 in Snow Light Snow
8:00 AM 35.6 °F 24.8 °F 35.6 °F 100% 30.48 in 5.0 mi North 19.6 mph 27.6 mph 0.05 in Rain Light Rain
8:20 AM 35.6 °F 24.2 °F 35.6 °F 100% 30.46 in 4.0 mi North 21.9 mph 33.4 mph 0.01 in   Mostly Cloudy
8:40 AM 35.6 °F 24.8 °F 32.0 °F 87% 30.50 in 2.0 mi North 19.6 mph 33.4 mph 0.06 in Snow Light Snow
9:00 AM 35.6 °F 25.2 °F 35.6 °F 100% 30.50 in 3.0 mi North 18.4 mph 32.2 mph 0.09 in Snow Light Snow
9:20 AM 35.6 °F 23.7 °F 35.6 °F 100% 30.48 in 5.0 mi North 24.2 mph 33.4 mph 0.01 in Snow Light Snow
9:40 AM 37.4 °F 25.9 °F 35.6 °F 93% 30.49 in 8.0 mi North 25.3 mph 35.7 mph 0.01 in Rain Light Rain
10:05 AM 37.4 °F 26.1 °F 33.8 °F 87% 30.51 in 10.0 mi North 24.2 mph 40.3 mph N/A   Overcast
10:20 AM 39.2 °F 28.5 °F 32.0 °F 75% 30.52 in 10.0 mi North 24.2 mph 43.7 mph N/A   Overcast
10:40 AM 39.2 °F 28.5 °F 32.0 °F 75% 30.52 in 10.0 mi North 24.2 mph 35.7 mph N/A   Overcast
11:00 AM 39.2 °F 28.7 °F 32.0 °F 75% 30.52 in 10.0 mi North 23.0 mph 36.8 mph N/A   Overcast
11:20 AM 41.0 °F 30.2 °F 32.0 °F 70% 30.52 in 10.0 mi North 27.6 mph 40.3 mph N/A   Mostly Cloudy
11:40 AM 41.0 °F 31.4 °F 32.0 °F 70% 30.52 in 9.0 mi North 21.9 mph 40.3 mph N/A Rain Light Rain
12:00 PM 41.0 °F 30.7 °F 32.0 °F 70% 30.53 in 10.0 mi North 25.3 mph 36.8 mph N/A   Partly Cloudy
12:40 PM 44.6 °F 35.7 °F 33.8 °F 66% 30.52 in 10.0 mi North 24.2 mph 33.4 mph N/A   Overcast
1:00 PM 48.2 °F - 32.0 °F 54% 30.50 in 10.0 mi North 26.5 mph 38.0 mph N/A   Overcast
1:20 PM 48.2 °F - 30.2 °F 50% 30.49 in 10.0 mi NNE 28.8 mph 40.3 mph N/A   Overcast
1:40 PM 50.0 °F - 28.4 °F 43% 30.49 in 10.0 mi North 31.1 mph 38.0 mph N/A   Overcast
2:00 PM 50.0 °F - 24.8 °F 37% 30.49 in 10.0 mi NNE 29.9 mph 40.3 mph N/A   Overcast
2:20 PM 51.8 °F - 28.4 °F 41% 30.49 in 10.0 mi NNE 28.8 mph 41.4 mph N/A   Overcast
2:40 PM 51.8 °F - 28.4 °F 41% 30.48 in 10.0 mi NNE 28.8 mph 39.1 mph N/A   Overcast
3:00 PM 51.8 °F - 28.4 °F 41% 30.48 in 10.0 mi North 24.2 mph 33.4 mph N/A   Overcast
3:20 PM 53.6 °F - 28.4 °F 38% 30.47 in 10.0 mi North 31.1 mph 40.3 mph N/A   Overcast
3:40 PM 53.6 °F - 26.6 °F 35% 30.47 in 10.0 mi NNE 29.9 mph 42.6 mph N/A   Overcast
4:00 PM 51.8 °F - 24.8 °F 35% 30.46 in 10.0 mi NNE 25.3 mph 39.1 mph N/A   Overcast
4:20 PM 51.8 °F - 28.4 °F 41% 30.46 in 10.0 mi North 21.9 mph 34.5 mph N/A   Overcast
4:40 PM 53.6 °F - 28.4 °F 38% 30.46 in 10.0 mi North 23.0 mph 35.7 mph N/A   Overcast
5:00 PM 53.6 °F - 26.6 °F 35% 30.46 in 10.0 mi NNE 25.3 mph 33.4 mph N/A   Mostly Cloudy
5:20 PM 53.6 °F - 26.6 °F 35% 30.45 in 10.0 mi North 24.2 mph 36.8 mph N/A   Mostly Cloudy
5:40 PM 53.6 °F - 26.6 °F 35% 30.45 in 10.0 mi NNE 21.9 mph 38.0 mph N/A   Mostly Cloudy
6:00 PM 51.8 °F - 26.6 °F 38% 30.45 in 10.0 mi North 17.3 mph 28.8 mph N/A   Mostly Cloudy
6:20 PM 53.6 °F - 26.6 °F 35% 30.44 in 10.0 mi North 17.3 mph 28.8 mph N/A   Overcast
6:40 PM 51.8 °F - 26.6 °F 38% 30.44 in 10.0 mi North 20.7 mph 32.2 mph N/A   Mostly Cloudy
7:05 PM 50.0 °F - 28.4 °F 43% 30.44 in 10.0 mi NNE 15.0 mph 23.0 mph N/A   Partly Cloudy
7:20 PM 50.0 °F - 26.6 °F 40% 30.44 in 10.0 mi NNE 15.0 mph 26.5 mph N/A   Clear
7:40 PM 50.0 °F - 28.4 °F 43% 30.44 in 10.0 mi NNE 16.1 mph 21.9 mph N/A   Clear
8:00 PM 48.2 °F - 28.4 °F 46% 30.44 in 10.0 mi NNE 11.5 mph - N/A   Clear
8:20 PM 46.4 °F 41.1 °F 28.4 °F 50% 30.45 in 10.0 mi NNE 11.5 mph - N/A   Clear
8:40 PM 46.4 °F 41.5 °F 30.2 °F 53% 30.45 in 10.0 mi NNE 10.4 mph - N/A   Clear
9:00 PM 44.6 °F 40.2 °F 30.2 °F 57% 30.45 in 10.0 mi North 8.1 mph - N/A   Clear
9:20 PM 44.6 °F 39.7 °F 30.2 °F 57% 30.45 in 10.0 mi North 9.2 mph - N/A   Clear
9:40 PM 42.8 °F 38.0 °F 30.2 °F 61% 30.45 in 10.0 mi North 8.1 mph - N/A   Clear
10:00 PM 41.0 °F 35.8 °F 30.2 °F 65% 30.45 in 10.0 mi NNW 8.1 mph - N/A   Clear
10:20 PM 39.2 °F 34.2 °F 30.2 °F 70% 30.45 in 10.0 mi NNW 6.9 mph - N/A   Partly Cloudy
10:40 PM 37.4 °F 31.4 °F 30.2 °F 75% 30.44 in 10.0 mi NNW 8.1 mph - N/A   Partly Cloudy
11:00 PM 39.2 °F 34.2 °F 30.2 °F 70% 30.44 in 10.0 mi NNW 6.9 mph - N/A   Partly Cloudy
11:20 PM 35.6 °F 29.9 °F 30.2 °F 81% 30.44 in 10.0 mi NW 6.9 mph - N/A   Partly Cloudy
11:40 PM 35.6 °F 29.9 °F 30.2 °F 81% 30.43 in 10.0 mi NW 6.9 mph - N/A   Partly Cloudy